GW2918 Weather Reports


time (UTC)temp
C
wind
direction
speed
KPH
gust
KPH
rain 1hr
cm
rain 24hr
cm
rain mn
cm
humidity
%
barometer
mb
20260901160537 25 233 4.8 8.0 0.00 0.08 0.08 90 1017.2
20260901155537 25 247 3.2 6.4 0.00 0.08 0.08 90 1017.5
20260901154532 25 208 6.4 9.7 0.00 0.08 0.08 90 1017.5
20260901153528 24 214 3.2 9.7 0.00 0.08 0.08 91 1017.8
20260901152528 24 216 4.8 8.0 0.00 0.08 0.08 91 1017.6
20260901151523 25 205 3.2 9.7 0.00 0.08 0.08 89 1017.5
20260901150520 24 227 4.8 9.7 0.00 0.08 0.08 91 1017.8
20260901145518 23 179 6.4 9.7 0.00 0.08 0.08 93 1017.5
20260901144514 23 308 1.6 8.0 0.00 0.08 0.08 93 1017.6
20260901143510 22 224 0.0 11.3 0.00 0.08 0.08 97 1017.5
20260901142507 21 221 4.8 8.0 0.00 0.08 0.08 99 1017.8
20260901141502 21 214 3.2 6.4 0.00 0.08 0.08 99 1017.7
20260901140501 21 188 3.2 8.0 0.00 0.08 0.08 99 1017.6
20260901135501 21 168 3.2 8.0 0.00 0.08 0.08 99 1017.7
20260901134459 21 207 3.2 6.4 0.00 0.08 0.08 99 1017.4
20260901133458 21 193 1.6 6.4 0.00 0.08 0.08 99 1017.6
20260901132457 20 211 8.0 11.3 0.00 0.08 0.08 99 1017.5
20260901131456 20 207 4.8 6.4 0.00 0.08 0.08 99 1017.9
20260901130452 20 211 8.0 8.0 0.05 0.08 0.08 99 1017.8
20260901125450 20 147 4.8 8.0 0.00 0.08 0.08 99 1018.1
20260901124446 20 185 1.6 6.4 0.13 0.08 0.08 99 1017.9
20260901123441 20 222 4.8 6.4 0.00 0.05 0.05 99 1018.1
20260901122439 20 261 3.2 8.0 0.13 0.05 0.05 99 1017.9
20260901121439 20 200 3.2 8.0 0.00 0.03 0.03 99 1018.0
20260901120434 20 220 3.2 6.4 0.00 0.03 0.03 99 1018.0
20260901115430 20 217 3.2 4.8 0.00 0.03 0.03 99 1018.0
20260901114429 20 177 1.6 3.2 0.05 0.03 0.03 99 1017.9
20260901113426 20 249 0.0 8.0 0.00 0.03 0.03 99 1017.7
20260901112422 20 88 3.2 6.4 0.00 0.03 0.03 99 1017.6
20260901111422 20 213 12.9 14.5 0.00 0.03 0.03 99 1017.9
20260901110416 20 234 4.8 8.0 0.00 0.03 0.03 99 1017.9
20260901105414 20 348 0.0 8.0 0.00 0.03 0.03 99 1017.9
20260901104410 20 211 4.8 6.4 0.00 0.03 0.03 99 1017.7
20260901103405 20 205 3.2 4.8 0.00 0.03 0.03 99 1017.8
20260901102400 20 142 1.6 4.8 0.00 0.03 0.03 99 1017.9
20260901101356 20 235 6.4 6.4 0.00 0.03 0.03 99 1017.5
20260901100356 20 221 3.2 8.0 0.00 0.03 0.03 99 1017.7
20260901095353 20 194 0.0 3.2 0.00 0.03 0.03 99 1017.6
20260901094348 20 89 0.0 3.2 0.00 0.03 0.03 99 1017.8
20260901093348 20 212 3.2 6.4 0.00 0.03 0.03 99 1017.8
20260901092345 20 192 0.0 6.4 0.00 0.03 0.03 99 1017.9
20260901091341 20 143 0.0 4.8 0.00 0.03 0.03 99 1018.3
20260901090341 20 210 4.8 6.4 0.00 0.03 0.03 99 1018.3
20260901085338 20 188 0.0 6.4 0.00 0.03 0.03 99 1018.3
20260901084337 20 200 0.0 3.2 0.05 0.03 0.03 99 1018.3
20260901083332 20 242 3.2 4.8 0.00 0.00 0.00 99 1018.4
20260901082332 20 196 0.0 3.2 0.00 0.00 0.00 99 1018.5
20260901081327 20 242 3.2 4.8 0.00 0.00 0.00 99 1018.5
20260901080328 20 205 1.6 4.8 0.00 0.00 0.00 99 1018.5
20260901075323 20 210 3.2 3.2 0.00 0.00 0.00 99 1018.6
20260901074318 20 225 0.0 3.2 0.00 0.00 0.00 99 1018.6
20260901073315 20 191 3.2 4.8 0.00 0.00 0.00 99 1018.9
20260901072311 20 213 3.2 4.8 0.00 0.00 0.00 99 1018.7
20260901071310 20 217 0.0 6.4 0.00 0.00 0.00 99 1018.9
20260901070305 20 156 0.0 3.2 0.00 0.00 0.00 99 1018.7
20260901065306 20 206 3.2 4.8 0.00 0.00 0.00 99 1019.0
20260901064303 20 202 3.2 4.8 0.00 0.00 0.00 99 1019.0
20260901063302 19 138 0.0 6.4 0.05 0.00 0.00 99 1018.8
20260901062259 19 187 3.2 3.2 0.00 0.00 0.00 99 1019.1
20260901061255 19 151 1.6 4.8 0.00 0.00 0.00 99 1019.0
20260901060251 19 217 0.0 4.8 0.00 0.00 0.00 99 1019.1
20260901055248 19 253 1.6 4.8 0.00 0.00 0.00 99 1019.3
20260901054247 19 197 1.6 3.2 0.00 0.00 0.00 99 1019.0
20260901053243 19 214 3.2 4.8 0.00 0.00 0.00 99 1019.5
20260901052240 19 175 1.6 3.2 0.00 0.00 0.00 99 1019.5
20260901051240 19 228 0.0 4.8 0.00 0.00 0.00 99 1019.2
20260901050236 19 166 1.6 3.2 0.00 0.00 0.00 99 1019.4
20260901045232 19 164 1.6 3.2 0.00 0.00 0.00 99 1019.4
20260901044229 19 218 3.2 3.2 0.00 0.00 0.00 99 1019.5
20260901043226 19 113 0.0 3.2 0.00 0.00 0.00 99 1019.5
20260901042226 19 175 0.0 4.8 0.00 0.00 0.00 99 1019.7
20260901041222 19 144 1.6 4.8 0.00 0.00 0.00 99 1019.6
20260901040222 19 164 1.6 3.2 0.00 0.00 0.00 99 1019.7
20260901035220 19 294 0.0 3.2 0.00 0.33 0.33 99 1019.5
20260901034220 19 217 0.0 4.8 0.00 0.33 0.33 99 1019.4
20260901033219 19 187 0.0 4.8 0.00 0.33 0.33 99 1019.5
20260901032218 19 209 4.8 6.4 0.00 0.33 0.33 99 1019.4
20260901031215 19 193 3.2 4.8 0.00 0.33 0.33 99 1019.4
20260901030210 19 196 3.2 3.2 0.00 0.33 0.33 99 1019.3
20260901025205 19 230 3.2 4.8 0.00 0.33 0.33 99 1019.6
20260901024204 19 210 0.0 4.8 0.05 0.33 0.33 99 1019.5
20260901023204 19 144 1.6 6.4 0.00 0.30 0.30 99 1019.8
20260901022200 19 235 4.8 9.7 0.05 0.30 0.30 99 1019.9
20260901021156 19 185 1.6 3.2 0.13 0.28 0.28 99 1020.4
20260901020153 19 190 4.8 8.0 0.05 0.28 0.28 99 1020.3
20260901015148 19 210 0.0 3.2 0.05 0.25 0.25 99 1020.4
20260901014144 19 195 0.0 6.4 0.00 0.25 0.25 99 1020.4
20260901013142 19 184 1.6 4.8 0.18 0.25 0.25 99 1020.3
20260901012137 19 195 4.8 4.8 0.05 0.23 0.23 99 1020.4
20260901011132 19 217 1.6 4.8 0.00 0.20 0.20 99 1020.3
20260901010132 19 206 3.2 6.4 0.00 0.20 0.20 99 1020.1
20260901005127 19 155 1.6 6.4 0.00 0.20 0.20 99 1020.4
20260901004127 19 197 4.8 4.8 0.00 0.20 0.20 99 1020.1
20260901003127 19 212 4.8 6.4 0.00 0.20 0.20 99 1019.7
20260901002122 19 211 8.0 8.0 0.00 0.20 0.20 99 1019.4
20260901001118 19 207 6.4 8.0 0.00 0.20 0.20 99 1019.4
20260901000115 19 171 6.4 16.1 0.00 0.20 0.20 99 1019.7
20260831235116 19 161 1.6 4.8 0.00 0.20 0.20 99 1019.8
20260831234111 20 195 3.2 11.3 0.00 0.20 0.20 99 1019.6
20260831233107 19 206 3.2 8.0 0.00 0.20 0.20 99 1019.8
20260831232104 20 199 6.4 9.7 0.00 0.20 0.20 99 1019.8
20260831231101 20 169 0.0 6.4 0.00 0.20 0.20 99 1019.9
20260831230057 20 209 4.8 8.0 0.00 0.20 0.20 99 1019.9
20260831225053 20 202 4.8 8.0 0.00 0.20 0.20 99 1020.1
20260831224049 20 202 8.0 14.5 0.00 0.20 0.20 99 1020.4
20260831223046 20 156 3.2 6.4 0.00 0.20 0.20 98 1020.1
20260831222042 20 183 1.6 9.7 0.00 0.20 0.20 98 1020.1
20260831221038 20 186 4.8 14.5 0.00 0.20 0.20 97 1020.1
20260831220035 20 208 6.4 8.0 0.00 0.20 0.20 97 1020.3
20260831215031 20 193 0.0 11.3 0.00 0.20 0.20 97 1020.5
20260831214030 20 179 3.2 6.4 0.00 0.20 0.20 98 1020.5
20260831213027 20 172 3.2 8.0 0.00 0.20 0.20 98 1020.4
20260831212024 20 272 3.2 12.9 0.00 0.20 0.20 98 1020.7
20260831211024 20 157 3.2 6.4 0.00 0.20 0.20 98 1020.8
20260831210021 20 216 6.4 8.0 0.00 0.20 0.20 98 1020.6
20260831205018 20 216 6.4 9.7 0.00 0.20 0.20 97 1020.8
20260831204016 20 199 6.4 16.1 0.00 0.20 0.20 97 1020.7
20260831203015 20 201 6.4 20.9 0.00 0.20 0.20 97 1020.5
20260831202015 19 156 3.2 9.7 0.00 0.20 0.20 99 1020.5
20260831201015 18 156 1.6 14.5 0.00 0.20 0.20 99 1020.8
20260831200012 18 179 3.2 14.5 0.00 0.20 0.20 99 1020.6
20260831195007 19 190 3.2 9.7 0.00 0.20 0.20 99 1020.8
20260831194002 19 192 4.8 12.9 0.00 0.20 0.20 99 1020.7
20260831192958 19 195 0.0 11.3 0.00 0.20 0.20 99 1021.0
20260831191954 19 197 3.2 19.3 0.00 0.20 0.20 98 1021.1
20260831190952 20 197 6.4 9.7 0.00 0.20 0.20 99 1021.1
20260831185951 19 201 8.0 9.7 0.00 0.20 0.20 99 1021.2
20260831184948 18 204 3.2 3.2 0.00 0.20 0.20 99 1021.1
20260831183944 18 200 9.7 9.7 0.00 0.20 0.20 99 1021.5
20260831182943 18 205 4.8 9.7 0.00 0.20 0.20 99 1021.6
20260831181939 18 207 3.2 9.7 0.00 0.20 0.20 99 1021.6
20260831180935 18 202 4.8 6.4 0.00 0.20 0.20 99 1021.5
20260831175934 18 141 3.2 3.2 0.13 0.20 0.20 99 1022.3
20260831174932 18 185 3.2 8.0 0.30 0.18 0.18 99 1022.0
20260831173927 18 188 6.4 8.0 0.13 0.15 0.15 99 1022.3
20260831172927 18 152 1.6 3.2 0.05 0.10 0.10 99 1022.4
20260831171923 18 175 1.6 11.3 0.05 0.10 0.10 99 1022.4
20260831170922 18 219 6.4 8.0 0.05 0.10 0.10 99 1022.6
20260831165920 18 185 3.2 9.7 0.00 0.08 0.08 99 1022.5
20260831164918 18 233 6.4 11.3 0.13 0.08 0.08 99 1022.6
20260831163915 18 199 3.2 6.4 0.00 0.05 0.05 99 1022.8
20260831162914 18 192 3.2 6.4 0.00 0.05 0.05 99 1022.3
20260831161914 18 199 3.2 6.4 0.00 0.05 0.05 99 1022.4